TimeMST,TemperatureF,Dew PointF,Humidity,Sea Level PressureIn,VisibilityMPH,Wind Direction,Wind SpeedMPH,Gust SpeedMPH,PrecipitationIn,Events,Conditions,WindDirDegrees,DateUTC
12:04 AM,-2.2,-7.6,78,30.01,1.0,NW,23.0,32.2,0.00,Snow,Light Snow,310,2013-01-30 07:04:00
12:38 AM,-4.0,-9.4,78,29.99,3.0,WNW,16.1,-,0.00,Snow,Light Snow,300,2013-01-30 07:38:00
12:51 AM,-4.0,-9.4,78,29.99,10.0,WNW,19.6,-,0.00,,Overcast,300,2013-01-30 07:51:00
12:56 AM,-4.0,-9.9,76,30.15,10.0,WNW,20.7,-,0.00,,Overcast,300,2013-01-30 07:56:00
1:51 AM,-5.8,-9.4,84,29.96,9.0,NW,12.7,-,0.00,Snow,Light Snow,310,2013-01-30 08:51:00
1:56 AM,-5.1,-9.9,80,30.13,9.0,WNW,13.8,-,0.00,,Overcast,300,2013-01-30 08:56:00
2:42 AM,-5.8,-9.4,84,29.95,10.0,WNW,13.8,-,N/A,,Overcast,300,2013-01-30 09:42:00
2:56 AM,-5.1,-9.9,80,30.11,10.0,WNW,12.7,-,N/A,,Overcast,300,2013-01-30 09:56:00
3:27 AM,-5.8,-9.4,84,29.92,10.0,WNW,13.8,-,N/A,,Overcast,290,2013-01-30 10:27:00
3:56 AM,-5.1,-9.9,80,30.08,10.0,West,12.7,-,N/A,,Overcast,280,2013-01-30 10:56:00
4:29 AM,-5.8,-9.4,84,29.90,10.0,WNW,12.7,-,N/A,,Overcast,290,2013-01-30 11:29:00
4:56 AM,-5.1,-9.9,80,30.07,10.0,WNW,15.0,-,N/A,,Overcast,300,2013-01-30 11:56:00
5:56 AM,-5.1,-9.9,80,30.07,10.0,WNW,15.0,-,N/A,,Mostly Cloudy,290,2013-01-30 12:56:00
6:56 AM,-8.0,-13.0,79,30.07,10.0,WNW,9.2,-,N/A,,Clear,300,2013-01-30 13:56:00
7:56 AM,-5.1,-9.9,80,30.07,10.0,NW,8.1,-,N/A,,Overcast,310,2013-01-30 14:56:00
8:56 AM,-4.0,-9.0,79,30.06,10.0,NW,9.2,-,N/A,,Overcast,320,2013-01-30 15:56:00
9:56 AM,-2.9,-9.0,75,30.06,10.0,NW,10.4,-,N/A,,Overcast,310,2013-01-30 16:56:00
10:56 AM,-0.9,-8.0,72,30.05,10.0,NW,11.5,-,N/A,,Overcast,310,2013-01-30 17:56:00
11:56 AM,-0.9,-8.0,72,30.04,10.0,NNW,9.2,-,N/A,,Clear,330,2013-01-30 18:56:00
12:56 PM,1.0,-7.1,69,30.03,10.0,NW,10.4,-,N/A,,Overcast,310,2013-01-30 19:56:00
1:56 PM,1.0,-7.1,69,30.01,10.0,NW,11.5,-,N/A,,Overcast,320,2013-01-30 20:56:00
2:56 PM,-0.0,-8.0,69,30.02,10.0,NW,12.7,-,N/A,,Mostly Cloudy,320,2013-01-30 21:56:00
3:56 PM,-0.0,-8.0,69,30.03,10.0,NNW,10.4,-,N/A,,Overcast,330,2013-01-30 22:56:00
4:56 PM,-0.9,-9.0,69,30.04,7.0,NNW,11.5,-,0.00,Snow,Light Snow,330,2013-01-30 23:56:00
5:56 PM,-2.9,-9.9,72,30.06,10.0,NNW,9.2,-,N/A,,Overcast,340,2013-01-31 00:56:00
6:56 PM,-2.9,-13.0,62,30.08,10.0,NW,17.3,-,N/A,,Overcast,320,2013-01-31 01:56:00
7:56 PM,-4.0,-14.1,62,30.08,9.0,NNW,17.3,-,0.00,Snow,Light Snow,330,2013-01-31 02:56:00
8:44 PM,-5.8,-11.2,77,29.89,1.8,NW,18.4,-,0.00,Snow,Light Snow,310,2013-01-31 03:44:00
8:56 PM,-5.1,-11.9,72,30.12,1.5,NW,19.6,-,0.00,Snow,Light Snow,310,2013-01-31 03:56:00
9:27 PM,-5.8,-11.2,77,29.91,2.0,NW,18.4,-,0.00,Snow,Light Snow,310,2013-01-31 04:27:00
9:34 PM,-5.8,-11.2,77,29.91,1.5,NW,18.4,-,0.00,Snow,Light Snow,320,2013-01-31 04:34:00
9:46 PM,-5.8,-11.2,77,29.91,1.8,NW,16.1,-,0.00,Snow,Light Snow,310,2013-01-31 04:46:00
9:56 PM,-6.0,-13.0,72,30.13,1.5,NW,17.3,-,0.00,Snow,Light Snow,320,2013-01-31 04:56:00
10:07 PM,-5.8,-13.0,71,29.92,2.0,NW,17.3,-,0.00,Snow,Light Snow,310,2013-01-31 05:07:00
10:18 PM,-7.6,-13.0,77,29.93,1.8,NW,17.3,-,0.00,Snow,Light Snow,320,2013-01-31 05:18:00
10:56 PM,-7.1,-13.0,75,30.16,1.5,NW,17.3,-,0.00,Snow,Light Snow,320,2013-01-31 05:56:00
11:56 PM,-8.0,-14.1,75,30.18,1.0,NNW,21.9,28.8,0.00,Snow,Light Snow,330,2013-01-31 06:56:00